Погода Нижний Тагил

Хотите узнать прогноз погоды Нижний Тагил? Тогда Вам сюда: Погода Нижний Тагил

Поиск расширенной информации на нашем сайте:

Полезная информация:

Новости сайта



14.11.2019
Обновлён Долгосрочный прогноз погоды по России и другим странам хСССР на ноябрь-декабрь 2019 года.
Опубликованы прогностические карты: Предварительный прогноз на декабрь 2019 года, Предварительный прогноз на январь 2020 года, Предварительная схема синоптических процессов на декабрь 2019 г..

11.11.2019
Обновлены Долгосрочный прогноз погоды по России и другим странам хСССР на ноябрь-декабрь 2019 года и Предварительный прогноз на зиму 2019/2020 годов

04.11.2019
Опубликован Долгосрочный прогноз погоды по России и другим странам хСССР на ноябрь 2019 года
Сравнение прогнозируемой аномалии приземной температуры воздуха на ноябрь 2019 года по разным моделям
Предварительный прогноз на зиму 2019/2020 года




Погода Нижний Тагил - сегодня

Время (UTC), дата Ветер
(°,м/с) 
Видим.   Явления Облачность Т
(°С)
Тd
(°С)
f(%) Тe
(°С)
Pmin
(гПа)
dP
(гПа)
Po
(мм)
O2
(г/м3)
Тmin Tmax R s Состояние
почвы
00 20.11.19 360 (С) 4000 м  слаб. снег  10/10 600 м 
[Frnb]
-21.4 -23.9 80 -22  1047  0.7  758  333           
03 20.11.19 360 (С) 4000 м  слаб. снег  8/0 средняя 
[As op]
-20.8 -23.3 80 -21  1048  759  333  -22.4    0.0  равномерный
сухой снег
100% 
06 20.11.19 340 (С) 20000 м    8/4 600 м средняя 
[Sc|As op]
-19.3 -21.9 80 -20  1049.4  1.6  760  331           
09 20.11.19 360 (С) 4000 м  дымка  3/3 600 м 
[Sc]
-16.3 -18.9 80 -16  1048.9  760  327           
12 20.11.19 тихо ()   20000 м    ясно 
-15.6 -18.3 80 -16  1048.2  -0.7  760  326           
15 20.11.19 тихо ()   20000 м    ясно 
-19.8 -21.7 85 -20  1048.6  -0.2  759  332    -15.4       
18 20.11.19 360 (С) 20000 м    ясно 
-21 -23.5 80 -21  1047.6  -1.1  759  333           
21 20.11.19 360 (С) 20000 м    ясно 
-20.1 -22.7 80 -23  1045.8  -1.6  757  331           
00 21.11.19 360 (С) 20000 м    ясно 
-19.5 -22.1 80 -20  1044.2  -1.4  756  330           
03 21.11.19 тихо ()   20000 м    ясно 
-17.2 -20.6 75 -17  1042.5  -1.3  755  326  -21.2      равномерный
сухой снег
100% 
06 21.11.19 290 (З) 20000 м    8/0 средняя 
[As op]
-13.4 -18.6 65 -18  1041.5  -0.5  755  321           
09 21.11.19 270 (З) 20000 м    6/0 средняя 
[Ac trans]
-12.2 -19.4 55 -16  1040.1  -1.2  754  320           
12 21.11.19 270 (З) 20000 м    10/10 600 м 
[Sc]
-12.6 -17.8 65 -16  1039.5  -0.6  754  320           
15 21.11.19 290 (З) 20000 м    10/10 600 м 
[Sc]
-14 -16.7 80 -18  1039.7  -0.1  754  321    -12.2       
18 21.11.19 270 (З) 20000 м    8/8 600 м 
[Sc]
-12.6 -14.6 85 -16  1037.3  -2  752  319           
21 21.11.19 270 (З) 20000 м    3/3 600 м 
[Sc]
-11.5 -13.5 85 -13  1036.3  -0.9  751  317           
00 22.11.19 270 (З) 20000 м    ясно 
-9.6 -11.2 88 -13  1035.5  -0.4  751  315           
03 22.11.19 270 (З) 20000 м    6/0 средняя 
[Ac trans]
-9 -10.6 88 -12  1036  0.4  751  314  -14      равномерный
сухой снег
100% 
06 22.11.19 270 (З) 20000 м  слаб. крупа{ливн. осадки}  10/10 600 м кучево-дожд. 
[Cb cap]
-7.8 -10 84 -9  1035.9  751  313           
09 22.11.19 270 (З) 20000 м  {ливн. осадки}  10/10 600 м кучево-дожд. 
[Cb cap]
-6.5 -8.9 83 -8  1036  0.3  752  311           
12 22.11.19 270 (З) 20000 м  {ливн. осадки}  10/10 600 м кучево-дожд. 
[Cb cap]
-6.1 -8.8 81 -8  1035.5  -0.5  751  310           
15 22.11.19 270 (З) 20000 м    10/10 600 м кучево-дожд. 
[Cb cap]
-5.8 -8 84 -7  1034.8  -0.6  751  310    -5.7  0.2     
18 22.11.19 270 (З) 20000 м    10/10 600 м кучево-дожд. 
[Cb cap]
-6 -7.9 86 -6  1034.5  -0.3  751  310           
21 22.11.19 270 (З) 20000 м    10/10 600 м кучево-дожд. 
[Cb cap]
-6.4 -8 88 -8  1033.9  -0.6  750  310           
00 23.11.19 270 (З) 20000 м    10/10 600 м кучево-дожд. 
[Cb cap]
-6.4 -8.4 86 -9  1032.7  -1.2  749  310           
Время (UTC), дата Ветер
(°,м/с) 
Видим.   Явления Облачность Т
(°С)
Тd
(°С)
f(%) Тe
(°С)
Pmin
(гПа)
dP
(гПа)
Po
(мм)
O2
(г/м3)
Тmin Tmax R s Состояние
почвы

Для получения пояснительной информации подведите курсор к названию столбца.

ПОГОДА Нижний Тагил - архив

Всё, что Вы хотите узнать о погоде Нижний Тагил - удобно и подробно!

Выберите нужную дату (начиная с 1 января 2019* года) и нажмите кнопку "Найти".
Будут отображены архивные сводки погоды по пункту Нижний Тагил, начиная с указанной даты.


Отображать данные в формате CSV (для использования в таблицах Excel)


Внимание! Наш архив погоды предназначен исключительно для личного некоммерческого использования в познавательных целях. Если Вам необходимы официальные справки о состоянии погоды (для производственных, юридических, коммерческих и т.п. целей), обращайтесь в органы Росгидромета.

*Примечание: данная дата относится к архиву по метеостанциям СССР (Россия, СНГ, Балтия).
Архив по метеостанциям Зарубежной Европы и Азии (кроме Китая) хранится 10 дней, по другим регионам земного шара (Китай, Африка, Америка, Австралия, Океания) - 1 день.

Нижний Тагил - район местоположения метеостанции


Название, широта, долгота, высота метеостанции:
Нижний Тагил 57.9°ш. 60.1°д. 260 м над ур. моря [Российская Федерация]

Дополнительная информация

В oтличие oт бoльшинства пoгoдных сайтoв мы публикуем пoдрoбную метеoинфoрмацию в детальнoм прoфессиoнальнoм фoрмате.

Характеристики температуры и влажнoсти вoздуха измеряются на высoте 2 м в тени вдали oт зданий и деревьев.
Скoрoсть ветра измеряется на высoте 10 м (на урoвне рoста челoвека скoрoсть ветра ниже в 1.5-2 раза). Если метеoстанция нахoдится в гoрoде или в лесу, тo скoрoсть ветра занижена на 2-4 м/с пo сравнению с oткрытым местoм. Скoрoсть ветра над акватoриями крупных рек и oзёр, а также на вершинах хoлмoв на 2-5 м/с выше, чем в oбычных услoвиях.
Атмoсфернoе давление в разных тoчках местнoсти мoжет значительнo oтличаться oт давления на метеoстанции, в зависимoсти oт услoвий рельефа (при пoдъёме на 10 м давление пoнижается примернo на 1 мм рт.ст.).